SCP
0 0 0 0 0 0 0 0 0 0 0 0 0 0 0 0 0 0 0 0 0 0 0 0 0 0 0 0 0 0 0 0 0 0 0 0 0 0 0 0 0 0 0 0
0 0 0 0 0 0 0 0 0 0 0 0 0 0 0 0 0 0 0 0 0 0 0 0 0 0 0 0 0 0 0 0 0 0 0 0 0 0 0 0 0 0 0 0
0 0 0 0 0 0 0 0 0 0 0 0 0 0 0 0 0 0 0 0 0 0 0 0 0 0 0 0 0 0 0 0 0 0 0 0 0 0 0 0 0 0 0 0
0 0 0 0 0 0 0 0 0 0 0 0 0 0 0 0 0 0 0 0 0 0 0 0 0 0 0 0 0 0 0 0 0 0 0 0 0 0 0 0 0 0 0 0
0 0 0 0 0 0 0 0 0 0 0 0 0 0 0 0 0 0 0 0 0 0 0 0 0 0 0 0 0 0 0 0 0 0 0 0 0 0 0 0 0 0 0 0
0 0 0 0 0 0 0 0 0 0 0 0 0 0 0 0 0 0 0 0 0 0 0 0 0 0 0 0 0 0 0 0 0 0 0 0 0 0 0 0 0 0 0 0
0 0 0 0 0 0 0 0 0 0 0 0 0 0 0 0 0 0 0 0 0 0 0 0 0 0 0 0 0 0 0 0 0 0 0 0 0 0 0 0 0 0 0 0
0 0 0 0 0 0 0 0 0 0 0 0 0 0 0 0 0 0 0 0 0 0 0 0 0 0 0 0 0 0 0 0 0 0 0 0 0 0 0 0 0 0 0 0
0 0 0 0 0 0 0 0 0 0 0 0 0 0 0 0 0 0 0 0 0 0 0 0 0 0 0 0 0 0 0 0 0 0 0 0 0 0 0 0 0 0 0 0
0 0 0 0 0 0 0 0 0 0 0 0 0 0 0 0 0 0 0 0 0 0 0 0 0 0 0 0 0 0 0 0 0 0 0 0 0 0 0 0 0 0 0 0
0 0 0 0 0 0 0 0 0 0 0 0 0 0 0 0 0 0 0 0 0 0 0 0 0 0 0 0 0 0 0 0 0 0 0 0 0 0 0 0 0 0 0 0
0 0 0 0 0 0 0 0 0 0 0 0 0 0 0 0 0 0 0 0 0 0 0 0 0 0 0 0 0 0 0 0 0 0 0 0 0 0 0 0 0 0 0 0
0 0 0 0 0 0 0 0 0 0 0 0 0 0 0 0 0 0 0 0 0 0 0 0 0 0 0 0 0 0 0 0 0 0 0 0 0 0 0 0 0 0 0 0
0 0 0 0 0 0 0 0 0 0 0 0 0 0 0 0 0 0 0 0 0 0 0 0 0 0 0 0 0 0 0 0 0 0 0 0 0 0 0 0 0 0 0 0
0 0 0 0 0 0 0 0 0 0 0 0 0 0 0 0 0 0 0 0 0 0 0 0 0 0 0 0 0 0 0 0 0 0 0 0 0 0 0 0 0 0 0 0
0 0 0 0 0 0 0 0 0 0 0 0 0 0 0 0 0 0 0 0 0 0 0 0 0 0 0 0 0 0 0 0 0 0 0 0 0 0 0 0 0 0 0 0
0 0 0 0 0 0 0 0 0 0 0 0 0 0 0 0 0 0 0 0 0 0 0 0 0 0 0 0 0 0 0 0 0 0 0 0 0 0 0 0 0 0 0 0
0 0 0 0 0 0 0 0 0 0 0 0 0 0 0 0 0 0 0 0 0 0 0 0 0 0 0 0 0 0 0 0 0 0 0 0 0 0 0 0 0 0 0 0
0 0 0 0 0 0 0 0 0 0 0 0 0 0 0 0 0 0 0 0 0 0 0 0 0 0 0 0 0 0 0 0 0 0 0 0 0 0 0 0 0 0 0 0
0 0 0 0 0 0 0 0 0 0 0 0 0 0 0 0 0 0 0 0 0 0 0 0 0 0 0 0 0 0 0 0 0 0 0 0 0 0 0 0 0 0 0 0
0 0 0 0 0 0 0 0 0 0 0 0 0 0 0 0 0 0 0 0 0 0 0 0 0 0 0 0 0 0 0 0 0 0 0 0 0 0 0 0 0 0 0 0
0 0 0 0 0 0 0 0 0 0 0 0 0 0 0 0 0 0 0 0 0 0 0 0 0 0 0 0 0 0 0 0 0 0 0 0 0 0 0 0 0 0 0 0
0 0 0 0 0 0 0 0 0 0 0 0 0 0 0 0 0 0 0 0 0 0 0 0 0 0 0 0 0 0 0 0 0 0 0 0 0 0 0 0 0 0 0 0
0 0 0 0 0 0 0 0 0 0 0 0 0 0 0 0 0 0 0 0 0 0 0 0 0 0 0 0 0 0 0 0 0 0 0 0 0 0 0 0 0 0 0 0
0 0 0 0 0 0 0 0 0 0 0 0 0 0 0 0 0 0 0 0 0 0 0 0 0 0 0 0 0 0 0 0 0 0 0 0 0 0 0 0 0 0 0 0
0 0 0 0 0 0 0 0 0 0 0 0 0 0 0 0 0 0 0 0 0 0 0 0 0 0 0 0 0 0 0 0 0 0 0 0 0 0 0 0 0 0 0 0
0 0 0 0 0 0 0 0 0 0 0 0 0 0 0 0 0 0 0 0 0 0 0 0 0 0 0 0 0 0 0 0 0 0 0 0 0 0 0 0 0 0 0 0
Wind_Speed_500mb
3 8 23 11 18 30 27 41 26 42 22 18 17 25 51 54 61 74 80 81 82 81 78 74 73 72 69 66 64 60 56 49 41 35 29 20 14 9 7 8 14 21 26 32
2 11 1 8 19 25 29 24 18 4 12 16 25 28 38 58 67 71 87 92 90 87 85 85 84 82 78 73 68 62 55 48 41 35 26 18 12 9 7 12 19 25 28 29
8 3 6 7 25 30 31 33 36 31 44 13 10 26 50 61 74 88 94 97 99 100 97 95 93 89 85 80 74 66 57 50 43 34 26 18 14 10 10 17 21 24 27 30
4 6 7 13 13 21 30 18 36 15 9 24 31 45 56 67 77 87 90 94 98 101 102 99 94 90 85 82 75 67 60 52 43 33 25 20 15 13 15 17 18 24 28 30
11 12 16 18 13 13 13 19 15 25 32 21 29 29 35 61 74 83 87 89 94 102 105 104 100 96 90 84 76 69 60 51 41 32 26 21 17 16 15 15 20 24 27 29
5 9 24 3 35 25 17 31 36 35 25 20 29 12 30 65 74 81 89 88 90 94 100 105 104 98 94 89 82 73 63 51 40 34 28 24 20 17 16 17 18 23 26 29
8 9 19 14 8 49 18 24 13 41 52 47 20 55 74 39 59 76 85 89 87 89 97 103 102 101 98 90 83 70 61 51 43 36 31 26 21 19 16 14 17 21 25 27
6 1 30 12 10 32 10 4 1 7 25 39 63 57 46 42 41 53 72 84 87 86 88 92 99 104 100 93 80 70 59 50 44 38 32 26 23 21 17 17 18 21 24 26
20 15 5 23 5 7 2 5 1 5 7 13 24 43 48 46 42 46 56 71 84 86 88 88 98 103 99 91 81 71 60 52 44 39 32 29 26 25 23 21 20 22 24 25
7 3 5 17 8 9 6 6 5 5 9 9 8 14 24 28 35 43 51 63 74 82 84 86 99 100 93 87 79 68 59 51 43 38 34 32 30 28 27 25 25 25 27 27
8 1 4 7 11 10 8 3 6 12 13 13 9 13 21 26 31 40 52 60 69 75 76 83 97 96 90 85 76 65 56 45 45 43 40 36 32 30 28 28 28 30 31 32
3 2 4 5 11 16 5 3 5 13 16 19 18 17 21 26 32 38 48 57 61 66 70 82 95 95 92 81 69 59 52 49 47 46 40 36 33 30 29 31 34 35 35 36
11 12 7 9 6 8 15 16 8 17 29 26 23 21 23 26 28 35 40 47 54 62 69 83 94 92 87 75 63 50 41 53 51 47 46 40 35 31 32 34 36 38 37 38
18 26 16 20 11 19 21 22 17 11 15 26 19 15 14 18 24 29 36 41 50 59 65 77 87 85 75 63 52 50 61 57 56 53 48 44 41 39 36 34 34 35 38 40
15 9 13 13 10 9 9 8 13 15 16 17 18 18 17 19 23 25 28 36 46 55 61 75 82 77 71 66 62 64 63 63 58 53 50 48 46 43 39 38 38 36 34 39
20 15 4 6 8 13 16 15 18 19 22 24 24 24 29 30 30 29 29 33 44 57 68 79 84 82 81 70 67 65 63 60 56 55 54 52 49 45 42 40 40 41 40 38
12 9 8 10 12 16 17 16 17 21 24 25 24 26 28 32 36 37 38 39 43 55 69 81 87 83 79 72 69 65 59 60 62 61 58 55 50 46 44 44 43 43 42 42
17 22 25 27 28 28 26 27 29 32 34 35 35 34 36 39 39 36 37 42 50 58 73 84 86 84 82 78 73 66 65 64 64 62 59 55 52 50 48 47 46 45 43 41
29 28 29 29 29 30 32 33 33 33 34 38 41 42 42 44 43 41 40 46 54 61 66 79 88 89 87 82 75 71 69 68 66 63 59 56 55 53 51 49 47 46 44 42
16 17 19 21 23 25 26 28 31 32 34 37 40 42 45 44 42 43 45 51 54 59 63 68 84 92 91 86 82 76 73 69 67 64 63 60 58 55 52 50 49 47 45 43
15 15 17 20 20 22 24 26 26 27 29 32 35 36 39 41 44 49 56 61 63 61 64 67 75 83 90 86 85 75 74 74 71 70 66 61 58 55 52 50 49 47 45 44
13 12 10 11 14 15 16 19 22 25 27 29 32 35 38 42 46 49 51 56 61 61 62 64 68 77 77 81 80 78 80 76 73 70 66 60 56 52 50 49 48 46 46 47
13 15 18 21 22 22 24 27 29 30 31 33 35 37 40 46 52 57 59 55 60 61 62 62 62 63 71 77 78 77 74 72 67 63 59 55 52 51 50 49 48 47 48 48
26 28 29 30 30 31 31 31 33 36 39 41 43 44 45 46 48 51 57 59 57 58 55 52 54 59 65 68 70 69 67 62 57 54 52 50 49 48 48 47 48 47 49 48
27 28 29 31 34 37 40 42 42 44 45 47 48 48 49 51 52 51 49 49 51 46 42 42 44 52 53 55 55 53 52 51 51 52 52 50 49 49 47 48 47 46 47 47
27 29 31 33 35 38 42 46 50 51 52 51 50 49 47 45 44 43 42 39 35 29 29 32 37 43 42 44 46 47 47 47 47 46 46 46 44 46 47 47 47 47 48 49
26 28 31 35 40 45 48 51 54 54 53 52 50 46 43 39 36 32 31 29 26 24 25 28 31 34 35 36 38 40 41 41 41 41 41 42 44 45 47 47 48 49 51 51
Wind_Direction_500mb
254 208 190 203 204 196 199 217 198 236 202 225 213 195 194 192 188 192 196 198 199 197 194 191 190 189 187 184 183 182 180 180 179 179 181 184 192 213 254 295 308 314 315 313
350 339 230 186 197 188 212 226 250 177 247 212 231 188 184 195 190 192 201 205 205 203 200 197 195 194 191 189 188 187 185 184 186 186 187 194 210 231 269 300 305 307 310 315
250 285 78 314 207 196 219 218 218 223 237 157 187 193 195 198 200 205 209 210 209 209 206 203 200 198 195 193 192 189 188 189 191 191 196 203 218 242 278 294 302 308 315 322
149 5 184 259 201 189 204 217 221 236 227 183 209 220 224 222 216 218 218 214 215 214 212 209 204 201 199 196 193 193 191 193 195 197 202 213 227 249 275 292 304 310 318 327
213 212 306 280 241 158 165 256 206 214 237 202 213 230 239 233 235 236 228 227 225 221 216 211 207 203 199 197 196 195 195 197 200 203 209 220 238 260 276 291 300 312 322 331
143 178 223 292 220 203 94 268 234 228 233 181 169 208 243 233 231 235 236 231 224 220 217 215 209 204 200 199 197 197 198 200 203 209 215 224 236 253 265 281 305 320 330 334
161 230 275 226 131 141 152 262 198 218 220 197 193 222 249 255 239 239 235 230 226 224 223 217 209 203 202 201 201 200 199 202 207 212 218 226 239 247 264 294 309 323 327 332
100 141 259 149 107 166 226 33 158 224 232 227 237 237 249 253 244 237 234 229 229 225 222 219 210 205 203 203 201 199 201 206 211 215 220 229 241 249 264 283 301 312 319 322
185 213 220 193 26 184 107 105 96 290 284 267 254 246 251 255 249 237 231 229 227 223 219 214 208 207 204 202 200 201 204 209 212 216 225 235 244 250 260 272 284 298 308 311
107 204 181 199 211 197 159 125 65 6 318 300 293 287 264 255 242 232 228 223 221 218 215 209 203 204 206 202 200 203 207 210 215 226 231 238 243 251 259 269 280 290 299 303
280 218 63 78 219 213 168 236 323 326 330 310 283 287 283 269 253 237 228 223 220 218 215 209 202 202 200 201 202 204 208 214 228 227 234 238 245 254 262 272 281 289 295 305
170 69 104 145 67 67 75 84 18 341 331 315 310 299 279 271 261 248 235 228 221 218 214 209 202 199 198 199 204 208 214 223 226 230 235 240 246 257 265 273 280 288 297 305
177 170 189 107 29 26 281 266 278 323 323 325 315 310 294 280 269 258 247 236 229 222 217 210 203 201 200 201 205 209 227 234 230 233 237 241 250 262 272 275 279 284 291 294
138 159 177 189 200 229 235 245 268 280 273 294 327 321 305 283 274 266 255 245 233 226 220 210 206 204 202 206 213 237 230 228 232 233 238 246 255 263 274 276 275 280 285 289
186 180 133 119 107 96 89 49 24 17 9 360 355 347 331 308 293 286 270 249 236 228 221 212 209 208 210 221 233 226 229 231 233 237 243 250 257 265 277 283 282 278 277 282
169 155 124 335 340 345 338 338 342 339 338 333 332 332 322 311 303 293 282 263 240 230 220 216 215 216 218 220 222 228 232 235 238 242 247 252 258 266 274 280 282 282 283 281
198 238 275 288 305 308 305 306 302 303 302 301 298 294 292 291 289 290 287 278 261 243 233 226 224 224 224 226 231 234 237 241 243 244 249 253 260 268 273 277 278 279 280 281
254 273 280 283 284 281 276 276 278 281 287 287 287 282 283 283 281 280 277 276 268 255 244 237 234 233 232 233 235 236 240 242 244 247 249 254 259 263 267 270 273 275 276 277
246 251 255 262 269 275 281 285 287 287 286 283 281 280 280 281 283 277 270 269 268 266 259 249 241 237 236 237 239 242 243 243 244 247 250 253 257 260 264 268 271 273 274 274
221 235 245 257 269 278 287 294 297 299 296 291 287 286 284 281 276 273 271 269 270 270 269 261 251 244 241 240 242 243 244 245 248 249 250 252 255 259 262 265 267 269 271 272
232 243 263 279 288 292 297 299 299 298 296 294 293 293 290 287 283 277 272 270 268 268 265 260 254 250 244 242 243 243 250 248 248 249 250 251 252 255 258 261 265 267 268 269
224 219 223 256 269 278 289 297 303 307 308 308 306 300 295 291 286 281 277 275 276 274 271 268 261 252 245 242 242 247 245 243 244 244 246 248 252 254 257 259 261 262 265 267
277 277 273 273 276 287 294 298 300 300 303 304 303 301 298 293 290 289 285 281 278 277 274 270 263 254 247 244 242 241 241 242 243 244 246 247 249 251 253 257 259 263 265 266
276 277 279 281 283 284 285 288 293 297 301 305 306 305 304 301 294 291 288 285 279 276 275 270 262 254 246 242 241 241 241 242 243 246 247 248 251 253 256 259 261 264 267 269
273 274 276 278 282 286 288 290 294 296 298 299 301 302 302 301 299 298 293 290 286 283 278 266 253 247 243 241 240 240 242 242 243 243 246 248 251 256 259 261 265 266 269 272
282 285 287 289 291 291 292 294 295 297 297 298 298 297 296 296 296 296 294 292 288 282 271 259 249 249 245 242 241 240 241 242 242 245 248 251 254 258 261 264 267 270 271 271
294 293 293 295 298 299 298 296 295 295 295 296 296 296 296 295 295 294 292 288 281 269 257 247 243 244 242 240 238 239 241 243 246 248 251 255 258 261 264 267 270 271 272 274
Wind_Speed_850mb
3 8 23 11 18 30 27 41 26 42 22 18 17 25 51 54 61 74 80 81 82 81 78 74 73 72 69 66 64 60 56 49 41 35 29 20 14 9 7 8 14 21 26 32
2 11 1 8 19 25 29 24 18 4 12 16 25 28 38 58 67 71 87 92 90 87 85 85 84 82 78 73 68 62 55 48 41 35 26 18 12 9 7 12 19 25 28 29
8 3 6 7 25 30 31 33 36 31 44 13 10 26 50 61 74 88 94 97 99 100 97 95 93 89 85 80 74 66 57 50 43 34 26 18 14 10 10 17 21 24 27 30
4 6 7 13 13 21 30 18 36 15 9 24 31 45 56 67 77 87 90 94 98 101 102 99 94 90 85 82 75 67 60 52 43 33 25 20 15 13 15 17 18 24 28 30
11 12 16 18 13 13 13 19 15 25 32 21 29 29 35 61 74 83 87 89 94 102 105 104 100 96 90 84 76 69 60 51 41 32 26 21 17 16 15 15 20 24 27 29
5 9 24 3 35 25 17 31 36 35 25 20 29 12 30 65 74 81 89 88 90 94 100 105 104 98 94 89 82 73 63 51 40 34 28 24 20 17 16 17 18 23 26 29
8 9 19 14 8 49 18 24 13 41 52 47 20 55 74 39 59 76 85 89 87 89 97 103 102 101 98 90 83 70 61 51 43 36 31 26 21 19 16 14 17 21 25 27
6 1 30 12 10 32 10 4 1 7 25 39 63 57 46 42 41 53 72 84 87 86 88 92 99 104 100 93 80 70 59 50 44 38 32 26 23 21 17 17 18 21 24 26
20 15 5 23 5 7 2 5 1 5 7 13 24 43 48 46 42 46 56 71 84 86 88 88 98 103 99 91 81 71 60 52 44 39 32 29 26 25 23 21 20 22 24 25
7 3 5 17 8 9 6 6 5 5 9 9 8 14 24 28 35 43 51 63 74 82 84 86 99 100 93 87 79 68 59 51 43 38 34 32 30 28 27 25 25 25 27 27
8 1 4 7 11 10 8 3 6 12 13 13 9 13 21 26 31 40 52 60 69 75 76 83 97 96 90 85 76 65 56 45 45 43 40 36 32 30 28 28 28 30 31 32
3 2 4 5 11 16 5 3 5 13 16 19 18 17 21 26 32 38 48 57 61 66 70 82 95 95 92 81 69 59 52 49 47 46 40 36 33 30 29 31 34 35 35 36
11 12 7 9 6 8 15 16 8 17 29 26 23 21 23 26 28 35 40 47 54 62 69 83 94 92 87 75 63 50 41 53 51 47 46 40 35 31 32 34 36 38 37 38
18 26 16 20 11 19 21 22 17 11 15 26 19 15 14 18 24 29 36 41 50 59 65 77 87 85 75 63 52 50 61 57 56 53 48 44 41 39 36 34 34 35 38 40
15 9 13 13 10 9 9 8 13 15 16 17 18 18 17 19 23 25 28 36 46 55 61 75 82 77 71 66 62 64 63 63 58 53 50 48 46 43 39 38 38 36 34 39
20 15 4 6 8 13 16 15 18 19 22 24 24 24 29 30 30 29 29 33 44 57 68 79 84 82 81 70 67 65 63 60 56 55 54 52 49 45 42 40 40 41 40 38
12 9 8 10 12 16 17 16 17 21 24 25 24 26 28 32 36 37 38 39 43 55 69 81 87 83 79 72 69 65 59 60 62 61 58 55 50 46 44 44 43 43 42 42
17 22 25 27 28 28 26 27 29 32 34 35 35 34 36 39 39 36 37 42 50 58 73 84 86 84 82 78 73 66 65 64 64 62 59 55 52 50 48 47 46 45 43 41
29 28 29 29 29 30 32 33 33 33 34 38 41 42 42 44 43 41 40 46 54 61 66 79 88 89 87 82 75 71 69 68 66 63 59 56 55 53 51 49 47 46 44 42
16 17 19 21 23 25 26 28 31 32 34 37 40 42 45 44 42 43 45 51 54 59 63 68 84 92 91 86 82 76 73 69 67 64 63 60 58 55 52 50 49 47 45 43
15 15 17 20 20 22 24 26 26 27 29 32 35 36 39 41 44 49 56 61 63 61 64 67 75 83 90 86 85 75 74 74 71 70 66 61 58 55 52 50 49 47 45 44
13 12 10 11 14 15 16 19 22 25 27 29 32 35 38 42 46 49 51 56 61 61 62 64 68 77 77 81 80 78 80 76 73 70 66 60 56 52 50 49 48 46 46 47
13 15 18 21 22 22 24 27 29 30 31 33 35 37 40 46 52 57 59 55 60 61 62 62 62 63 71 77 78 77 74 72 67 63 59 55 52 51 50 49 48 47 48 48
26 28 29 30 30 31 31 31 33 36 39 41 43 44 45 46 48 51 57 59 57 58 55 52 54 59 65 68 70 69 67 62 57 54 52 50 49 48 48 47 48 47 49 48
27 28 29 31 34 37 40 42 42 44 45 47 48 48 49 51 52 51 49 49 51 46 42 42 44 52 53 55 55 53 52 51 51 52 52 50 49 49 47 48 47 46 47 47
27 29 31 33 35 38 42 46 50 51 52 51 50 49 47 45 44 43 42 39 35 29 29 32 37 43 42 44 46 47 47 47 47 46 46 46 44 46 47 47 47 47 48 49
26 28 31 35 40 45 48 51 54 54 53 52 50 46 43 39 36 32 31 29 26 24 25 28 31 34 35 36 38 40 41 41 41 41 41 42 44 45 47 47 48 49 51 51
Wind_Direction_850mb
254 208 190 203 204 196 199 217 198 236 202 225 213 195 194 192 188 192 196 198 199 197 194 191 190 189 187 184 183 182 180 180 179 179 181 184 192 213 254 295 308 314 315 313
350 339 230 186 197 188 212 226 250 177 247 212 231 188 184 195 190 192 201 205 205 203 200 197 195 194 191 189 188 187 185 184 186 186 187 194 210 231 269 300 305 307 310 315
250 285 78 314 207 196 219 218 218 223 237 157 187 193 195 198 200 205 209 210 209 209 206 203 200 198 195 193 192 189 188 189 191 191 196 203 218 242 278 294 302 308 315 322
149 5 184 259 201 189 204 217 221 236 227 183 209 220 224 222 216 218 218 214 215 214 212 209 204 201 199 196 193 193 191 193 195 197 202 213 227 249 275 292 304 310 318 327
213 212 306 280 241 158 165 256 206 214 237 202 213 230 239 233 235 236 228 227 225 221 216 211 207 203 199 197 196 195 195 197 200 203 209 220 238 260 276 291 300 312 322 331
143 178 223 292 220 203 94 268 234 228 233 181 169 208 243 233 231 235 236 231 224 220 217 215 209 204 200 199 197 197 198 200 203 209 215 224 236 253 265 281 305 320 330 334
161 230 275 226 131 141 152 262 198 218 220 197 193 222 249 255 239 239 235 230 226 224 223 217 209 203 202 201 201 200 199 202 207 212 218 226 239 247 264 294 309 323 327 332
100 141 259 149 107 166 226 33 158 224 232 227 237 237 249 253 244 237 234 229 229 225 222 219 210 205 203 203 201 199 201 206 211 215 220 229 241 249 264 283 301 312 319 322
185 213 220 193 26 184 107 105 96 290 284 267 254 246 251 255 249 237 231 229 227 223 219 214 208 207 204 202 200 201 204 209 212 216 225 235 244 250 260 272 284 298 308 311
107 204 181 199 211 197 159 125 65 6 318 300 293 287 264 255 242 232 228 223 221 218 215 209 203 204 206 202 200 203 207 210 215 226 231 238 243 251 259 269 280 290 299 303
280 218 63 78 219 213 168 236 323 326 330 310 283 287 283 269 253 237 228 223 220 218 215 209 202 202 200 201 202 204 208 214 228 227 234 238 245 254 262 272 281 289 295 305
170 69 104 145 67 67 75 84 18 341 331 315 310 299 279 271 261 248 235 228 221 218 214 209 202 199 198 199 204 208 214 223 226 230 235 240 246 257 265 273 280 288 297 305
177 170 189 107 29 26 281 266 278 323 323 325 315 310 294 280 269 258 247 236 229 222 217 210 203 201 200 201 205 209 227 234 230 233 237 241 250 262 272 275 279 284 291 294
138 159 177 189 200 229 235 245 268 280 273 294 327 321 305 283 274 266 255 245 233 226 220 210 206 204 202 206 213 237 230 228 232 233 238 246 255 263 274 276 275 280 285 289
186 180 133 119 107 96 89 49 24 17 9 360 355 347 331 308 293 286 270 249 236 228 221 212 209 208 210 221 233 226 229 231 233 237 243 250 257 265 277 283 282 278 277 282
169 155 124 335 340 345 338 338 342 339 338 333 332 332 322 311 303 293 282 263 240 230 220 216 215 216 218 220 222 228 232 235 238 242 247 252 258 266 274 280 282 282 283 281
198 238 275 288 305 308 305 306 302 303 302 301 298 294 292 291 289 290 287 278 261 243 233 226 224 224 224 226 231 234 237 241 243 244 249 253 260 268 273 277 278 279 280 281
254 273 280 283 284 281 276 276 278 281 287 287 287 282 283 283 281 280 277 276 268 255 244 237 234 233 232 233 235 236 240 242 244 247 249 254 259 263 267 270 273 275 276 277
246 251 255 262 269 275 281 285 287 287 286 283 281 280 280 281 283 277 270 269 268 266 259 249 241 237 236 237 239 242 243 243 244 247 250 253 257 260 264 268 271 273 274 274
221 235 245 257 269 278 287 294 297 299 296 291 287 286 284 281 276 273 271 269 270 270 269 261 251 244 241 240 242 243 244 245 248 249 250 252 255 259 262 265 267 269 271 272
232 243 263 279 288 292 297 299 299 298 296 294 293 293 290 287 283 277 272 270 268 268 265 260 254 250 244 242 243 243 250 248 248 249 250 251 252 255 258 261 265 267 268 269
224 219 223 256 269 278 289 297 303 307 308 308 306 300 295 291 286 281 277 275 276 274 271 268 261 252 245 242 242 247 245 243 244 244 246 248 252 254 257 259 261 262 265 267
277 277 273 273 276 287 294 298 300 300 303 304 303 301 298 293 290 289 285 281 278 277 274 270 263 254 247 244 242 241 241 242 243 244 246 247 249 251 253 257 259 263 265 266
276 277 279 281 283 284 285 288 293 297 301 305 306 305 304 301 294 291 288 285 279 276 275 270 262 254 246 242 241 241 241 242 243 246 247 248 251 253 256 259 261 264 267 269
273 274 276 278 282 286 288 290 294 296 298 299 301 302 302 301 299 298 293 290 286 283 278 266 253 247 243 241 240 240 242 242 243 243 246 248 251 256 259 261 265 266 269 272
282 285 287 289 291 291 292 294 295 297 297 298 298 297 296 296 296 296 294 292 288 282 271 259 249 249 245 242 241 240 241 242 242 245 248 251 254 258 261 264 267 270 271 271
294 293 293 295 298 299 298 296 295 295 295 296 296 296 296 295 295 294 292 288 281 269 257 247 243 244 242 240 238 239 241 243 246 248 251 255 258 261 264 267 270 271 272 274